Weather in Lgov

Russia / Kursk Oblast     51°39′24″N   35°15′33″E
temp.,
°C
wind,
m/s
gust,
m/s
humid.,
%
clouds,
%
prec.,
mm/h
press.,
hPa
HPBL,
m
17 october, sun
sun1700:00+4wsw22945 0.0 101930
03:00+4w22955 0.0 101913
06:00+4wnw229419 0.0 101911
09:00+6w128479 0.0 1019106
12:00+10w336223 0.0 1018645
15:00+12w445336 0.0 10171117
18:00+8w337459 0.0 101727
21:00+6w338262 0.0 101837
18 october, mon
mon1800:00+8wnw3764100 0.0 1018222
03:00+5w336891 0.0 101736
06:00+4wsw387571 0.0 1017160
09:00+6wsw496687 0.0 1017323
12:00+9w5755100 0.0 1016873
15:00+10w6753100 0.0 10151362
18:00+8w3766100 0.0 1016175
21:00+7wnw4773100 0.0 1015739
19 october, tue
tue1900:00+6nw3587100 0.5 1015933
03:00+5nw3590100 3.4 1016656
06:00+3nnw37925 0.2 1017180
09:00+4nw48780 0.2 1018371
12:00+7nw686332 0.0 10191141
15:00+7nw6860100 0.1 10191590
18:00+4nw5970100 0.0 1022805
21:00+2nw497913 0.1 1023430
20 october, wed
wed2000:00+1nw488499 0.0 1024299
03:00+2nw3782100 0.1 1025462
06:000nw369456 0.1 1026167
09:00+1nw2486100 0.1 1027245
12:00+4w3463100 0.0 1027864
15:00+6wsw4549100 0.0 10251068
18:00+4sw3459100 0.0 102575
21:00+3ssw3769100 0.0 1024144
21 october, thu
thu2100:00+3ssw41171100 0.0 1022292
03:00+4ssw61466100 0.0 1020372
06:00+6ssw61556100 0.0 1018447
09:00+7ssw8176082 0.0 1017531
12:00+11sw9156138 0.0 1015752
15:00+13ssw91563100 0.0 1013920
18:00+11sw91669100 0.0 1013889
21:00+11ssw81767100 0.0 1011733